Time,TemperatureF,DewpointF,PressureIn,WindDirection,WindDirectionDegrees,WindSpeedMPH,WindSpeedGustMPH,Humidity,HourlyPrecipIn,Conditions,Clouds,dailyrainin,SoftwareType,DateUTC
2016-12-06 00:02:00,30.5,29.8,24.40,SSE,150,3.9,9.2,97,0.00,CLR,FEW,0.00,WeatherDisplay:10.37,2016-12-06 06:02:00,
2016-12-06 00:07:00,30.4,29.7,24.40,SSE,158,6.6,10.4,97,0.00,CLR,FEW,0.00,WeatherDisplay:10.37,2016-12-06 06:07:00,
2016-12-06 00:12:00,30.4,29.7,24.40,South,181,3.0,5.8,97,0.00,CLR,FEW,0.00,WeatherDisplay:10.37,2016-12-06 06:12:00,
2016-12-06 00:17:00,30.4,29.7,24.40,SE,124,4.4,7.5,97,0.00,CLR,FEW,0.00,WeatherDisplay:10.37,2016-12-06 06:17:00,
2016-12-06 00:22:00,30.3,29.6,24.40,SSE,148,4.4,6.9,97,0.00,CLR,FEW,0.00,WeatherDisplay:10.37,2016-12-06 06:22:00,
2016-12-06 00:27:00,30.3,29.6,24.40,SSE,157,4.2,9.2,97,0.00,CLR,FEW,0.00,WeatherDisplay:10.37,2016-12-06 06:27:00,
2016-12-06 00:32:00,30.3,29.6,24.40,SSE,147,4.1,8.3,97,0.00,CLR,FEW,0.00,WeatherDisplay:10.37,2016-12-06 06:32:00,
2016-12-06 00:37:00,30.3,29.6,24.40,SSE,160,4.4,8.1,97,0.00,CLR,FEW,0.00,WeatherDisplay:10.37,2016-12-06 06:37:00,
2016-12-06 00:42:00,30.3,29.6,24.40,SSE,147,5.1,9.2,97,0.00,CLR,FEW,0.00,WeatherDisplay:10.37,2016-12-06 06:42:00,
2016-12-06 00:47:00,30.3,29.6,24.40,ESE,120,4.7,9.2,97,0.00,CLR,FEW,0.00,WeatherDisplay:10.37,2016-12-06 06:47:00,
2016-12-06 00:52:00,30.3,29.6,24.40,SSW,192,4.1,8.1,97,0.00,CLR,FEW,0.00,WeatherDisplay:10.37,2016-12-06 06:52:00,
2016-12-06 00:57:00,30.3,29.6,24.40,South,181,3.8,6.9,97,0.00,CLR,FEW,0.00,WeatherDisplay:10.37,2016-12-06 06:57:00,
2016-12-06 01:02:00,30.2,29.5,24.40,SW,224,6.9,10.4,97,0.00,CLR,FEW,0.00,WeatherDisplay:10.37,2016-12-06 07:02:00,
2016-12-06 01:07:00,30.3,29.6,24.40,SW,215,4.9,9.2,97,0.00,CLR,FEW,0.00,WeatherDisplay:10.37,2016-12-06 07:07:00,
2016-12-06 01:12:00,30.3,29.6,24.40,SW,215,5.7,8.1,97,0.00,CLR,FEW,0.00,WeatherDisplay:10.37,2016-12-06 07:12:00,
2016-12-06 01:17:00,30.2,29.5,24.40,SSW,205,6.6,9.2,97,0.00,CLR,FEW,0.00,WeatherDisplay:10.37,2016-12-06 07:17:00,
2016-12-06 01:22:00,30.2,29.5,24.40,South,171,4.3,8.1,97,0.00,CLR,FEW,0.00,WeatherDisplay:10.37,2016-12-06 07:22:00,
2016-12-06 01:27:00,30.2,29.5,24.40,South,172,2.9,5.0,97,0.00,CLR,FEW,0.00,WeatherDisplay:10.37,2016-12-06 07:27:00,
2016-12-06 01:32:00,30.2,29.5,24.40,SSW,212,3.6,5.2,97,0.00,CLR,FEW,0.00,WeatherDisplay:10.37,2016-12-06 07:32:00,
2016-12-06 01:37:00,30.3,29.6,24.40,WSW,258,4.2,6.9,97,0.00,CLR,FEW,0.00,WeatherDisplay:10.37,2016-12-06 07:37:00,
2016-12-06 01:42:00,30.2,29.5,24.40,SSE,151,3.9,8.0,97,0.00,CLR,FEW,0.00,WeatherDisplay:10.37,2016-12-06 07:42:00,
2016-12-06 01:47:00,30.2,29.5,24.40,SSE,168,5.5,8.1,97,0.00,CLR,FEW,0.00,WeatherDisplay:10.37,2016-12-06 07:47:00,
2016-12-06 01:52:00,30.1,29.4,24.40,ESE,121,4.9,6.9,97,0.00,CLR,FEW,0.00,WeatherDisplay:10.37,2016-12-06 07:52:00,
2016-12-06 01:57:00,30.2,29.5,24.40,South,171,4.7,6.9,97,0.00,CLR,FEW,0.00,WeatherDisplay:10.37,2016-12-06 07:57:00,
2016-12-06 02:02:00,30.2,29.5,24.40,SW,226,4.4,5.8,97,0.00,CLR,FEW,0.00,WeatherDisplay:10.37,2016-12-06 08:02:00,
2016-12-06 02:07:00,30.1,29.4,24.40,SSE,161,4.3,6.2,97,0.00,CLR,FEW,0.00,WeatherDisplay:10.37,2016-12-06 08:07:00,
2016-12-06 02:12:00,30.1,29.4,24.40,SSE,162,4.3,6.9,97,0.00,CLR,FEW,0.00,WeatherDisplay:10.37,2016-12-06 08:12:00,
2016-12-06 02:17:00,30.1,29.4,24.40,South,184,4.0,8.1,97,0.00,CLR,FEW,0.00,WeatherDisplay:10.37,2016-12-06 08:17:00,
2016-12-06 02:22:00,30.1,29.4,24.40,SSE,152,5.0,7.1,97,0.00,CLR,FEW,0.00,WeatherDisplay:10.37,2016-12-06 08:22:00,
2016-12-06 02:27:00,30.1,29.4,24.40,SE,127,4.3,8.1,97,0.00,CLR,FEW,0.00,WeatherDisplay:10.37,2016-12-06 08:27:00,
2016-12-06 02:32:00,30.1,29.4,24.40,SW,226,3.0,8.1,97,0.00,CLR,FEW,0.00,WeatherDisplay:10.37,2016-12-06 08:32:00,
2016-12-06 02:37:00,30.1,29.4,24.40,South,178,4.9,5.8,97,0.00,CLR,FEW,0.00,WeatherDisplay:10.37,2016-12-06 08:37:00,
2016-12-06 02:47:00,30.1,29.4,24.40,South,182,2.9,5.8,97,0.00,CLR,FEW,0.00,WeatherDisplay:10.37,2016-12-06 08:47:00,
2016-12-06 02:52:00,30.2,29.5,24.40,SE,141,5.4,6.5,97,0.00,CLR,FEW,0.00,WeatherDisplay:10.37,2016-12-06 08:52:00,
2016-12-06 02:57:00,30.2,29.5,24.40,SSW,212,3.2,5.8,97,0.00,CLR,FEW,0.00,WeatherDisplay:10.37,2016-12-06 08:57:00,
2016-12-06 03:02:00,30.3,29.6,24.40,SW,219,2.9,4.6,97,0.00,CLR,FEW,0.00,WeatherDisplay:10.37,2016-12-06 09:02:00,
2016-12-06 03:13:00,30.3,29.6,24.40,SSE,161,2.4,4.6,97,0.00,CLR,FEW,0.00,WeatherDisplay:10.37,2016-12-06 09:13:00,
2016-12-06 03:18:00,30.3,29.6,24.40,South,191,3.7,4.6,97,0.00,CLR,FEW,0.00,WeatherDisplay:10.37,2016-12-06 09:18:00,
2016-12-06 03:23:00,30.4,29.7,24.40,SW,215,4.0,5.0,97,0.00,CLR,FEW,0.00,WeatherDisplay:10.37,2016-12-06 09:23:00,
2016-12-06 03:28:00,30.4,29.7,24.40,SSE,164,3.9,6.9,97,0.00,CLR,FEW,0.00,WeatherDisplay:10.37,2016-12-06 09:28:00,
2016-12-06 03:33:00,30.4,29.7,24.40,SSW,203,2.8,5.8,97,0.00,CLR,FEW,0.00,WeatherDisplay:10.37,2016-12-06 09:33:00,
2016-12-06 03:38:00,30.5,29.8,24.40,WSW,240,2.4,4.6,97,0.00,CLR,FEW,0.00,WeatherDisplay:10.37,2016-12-06 09:38:00,
2016-12-06 03:43:00,30.5,29.8,24.40,SSW,200,3.8,5.8,97,0.00,CLR,FEW,0.00,WeatherDisplay:10.37,2016-12-06 09:43:00,
2016-12-06 03:48:00,30.5,29.8,24.40,South,174,2.3,3.5,97,0.00,CLR,FEW,0.00,WeatherDisplay:10.37,2016-12-06 09:48:00,
2016-12-06 03:53:00,30.5,29.8,24.40,SSE,157,2.8,4.5,97,0.00,CLR,FEW,0.00,WeatherDisplay:10.37,2016-12-06 09:53:00,
2016-12-06 03:58:00,30.5,29.8,24.40,South,191,1.8,3.5,97,0.00,CLR,FEW,0.00,WeatherDisplay:10.37,2016-12-06 09:58:00,
2016-12-06 04:03:00,30.5,29.8,24.40,South,186,3.7,4.6,97,0.00,CLR,FEW,0.00,WeatherDisplay:10.37,2016-12-06 10:03:00,
2016-12-06 04:08:00,30.5,29.8,24.40,SSE,152,2.8,4.6,97,0.00,CLR,FEW,0.00,WeatherDisplay:10.37,2016-12-06 10:08:00,
2016-12-06 04:13:00,30.6,29.9,24.40,South,182,1.7,3.5,97,0.00,CLR,FEW,0.00,WeatherDisplay:10.37,2016-12-06 10:13:00,
2016-12-06 04:18:00,30.6,29.9,24.40,WSW,248,4.1,6.9,97,0.00,CLR,FEW,0.00,WeatherDisplay:10.37,2016-12-06 10:18:00,
2016-12-06 04:23:00,30.6,29.9,24.40,SW,223,3.2,6.9,97,0.00,CLR,FEW,0.00,WeatherDisplay:10.37,2016-12-06 10:23:00,
2016-12-06 04:28:00,30.7,30.0,24.40,SSW,208,1.4,2.6,97,0.00,CLR,FEW,0.00,WeatherDisplay:10.37,2016-12-06 10:28:00,
2016-12-06 04:33:00,30.7,30.0,24.40,South,179,2.2,3.5,97,0.00,CLR,FEW,0.00,WeatherDisplay:10.37,2016-12-06 10:33:00,
2016-12-06 04:38:00,30.7,30.0,24.40,SSW,203,3.8,6.9,97,0.00,CLR,FEW,0.00,WeatherDisplay:10.37,2016-12-06 10:38:00,
2016-12-06 04:43:00,30.8,30.0,24.40,SSW,208,5.1,6.9,97,0.00,CLR,FEW,0.00,WeatherDisplay:10.37,2016-12-06 10:43:00,
2016-12-06 04:48:00,30.8,30.0,24.40,WNW,291,1.7,2.3,97,0.00,CLR,FEW,0.00,WeatherDisplay:10.37,2016-12-06 10:48:00,
2016-12-06 04:53:00,30.9,30.1,24.40,SW,226,3.4,4.6,97,0.00,CLR,FEW,0.00,WeatherDisplay:10.37,2016-12-06 10:53:00,
2016-12-06 04:58:00,30.8,30.0,24.40,SW,224,3.4,5.8,97,0.00,CLR,FEW,0.00,WeatherDisplay:10.37,2016-12-06 10:58:00,
2016-12-06 05:03:00,30.9,30.1,24.40,SSE,154,0.1,1.2,97,0.00,CLR,FEW,0.00,WeatherDisplay:10.37,2016-12-06 11:03:00,
2016-12-06 05:08:00,30.9,30.1,24.40,SSW,213,2.4,3.5,97,0.00,CLR,FEW,0.00,WeatherDisplay:10.37,2016-12-06 11:08:00,
2016-12-06 05:13:00,30.9,30.1,24.40,SSW,195,3.9,5.8,97,0.00,CLR,FEW,0.00,WeatherDisplay:10.37,2016-12-06 11:13:00,
2016-12-06 05:18:00,31.0,30.2,24.40,South,188,3.1,4.6,97,0.00,CLR,FEW,0.00,WeatherDisplay:10.37,2016-12-06 11:18:00,
2016-12-06 05:23:00,31.0,30.2,24.40,SW,215,4.6,6.9,97,0.00,CLR,FEW,0.00,WeatherDisplay:10.37,2016-12-06 11:23:00,
2016-12-06 05:28:00,31.0,30.2,24.40,South,172,3.6,4.6,97,0.00,CLR,FEW,0.00,WeatherDisplay:10.37,2016-12-06 11:28:00,
2016-12-06 05:33:00,31.0,30.2,24.40,SW,219,3.3,5.8,97,0.00,CLR,FEW,0.00,WeatherDisplay:10.37,2016-12-06 11:33:00,
2016-12-06 05:38:00,31.0,30.2,24.40,South,191,3.9,5.8,97,0.00,CLR,FEW,0.00,WeatherDisplay:10.37,2016-12-06 11:38:00,
2016-12-06 05:43:00,31.1,30.3,24.40,South,188,1.4,3.5,97,0.00,CLR,FEW,0.00,WeatherDisplay:10.37,2016-12-06 11:43:00,
2016-12-06 05:48:00,31.0,30.2,24.40,SSW,209,2.1,3.5,97,0.00,CLR,FEW,0.00,WeatherDisplay:10.37,2016-12-06 11:48:00,
2016-12-06 05:53:00,31.1,30.6,24.40,SW,220,1.6,2.3,98,0.00,CLR,FEW,0.00,WeatherDisplay:10.37,2016-12-06 11:53:00,
2016-12-06 05:58:00,31.1,30.6,24.40,SW,219,2.8,3.8,98,0.00,CLR,FEW,0.00,WeatherDisplay:10.37,2016-12-06 11:58:00,
2016-12-06 06:03:00,31.2,30.7,24.40,SW,229,2.8,3.9,98,0.00,CLR,FEW,0.00,WeatherDisplay:10.37,2016-12-06 12:03:00,
2016-12-06 06:08:00,31.2,30.7,24.40,SW,217,2.0,3.5,98,0.00,CLR,FEW,0.00,WeatherDisplay:10.37,2016-12-06 12:08:00,
2016-12-06 06:13:00,31.2,30.7,24.40,SW,226,2.9,4.6,98,0.00,CLR,FEW,0.00,WeatherDisplay:10.37,2016-12-06 12:13:00,
2016-12-06 06:18:00,31.2,30.7,24.40,WSW,241,3.3,4.6,98,0.00,CLR,FEW,0.00,WeatherDisplay:10.37,2016-12-06 12:18:00,
2016-12-06 06:23:00,31.2,30.7,24.40,SW,224,3.2,4.6,98,0.00,CLR,FEW,0.00,WeatherDisplay:10.37,2016-12-06 12:23:00,